Location: Bamobli
(6.6379°N, 10.9396°W)
Time: 08:51:44
(UTC+00:00)

XW-2C - Visible Passes

Search period start: 09 May 2021 00:00
Search period end: 19 May 2021 00:00
Orbit: 506 x 525 km, 97.5° (Epoch: 08 May)

Date Brightness Start Highest point End Pass type
(mag) Time Alt. Az. Time Alt. Az. Time Alt. Az.
09 May ? 06:04:14 10° NNE 06:07:51 42° E 06:11:28 10° S visible
10 May ? 05:49:57 10° NE 05:53:07 25° E 05:56:15 10° SSE visible
11 May ? 05:36:09 10° ENE 05:38:21 15° E 05:40:33 10° SE visible
16 May ? 05:55:07 10° NE 05:58:28 30° E 06:01:48 10° SSE visible
17 May ? 05:41:06 10° ENE 05:43:42 18° E 05:46:18 10° SE visible
18 May ? 05:28:14 10° E 05:28:57 10° E 05:29:39 10° ESE visible
